Time,TemperatureF,DewpointF,PressureIn,WindDirection,WindDirectionDegrees,WindSpeedMPH,WindSpeedGustMPH,Humidity,HourlyPrecipIn,Conditions,Clouds,dailyrainin,SoftwareType,DateUTC
2013-03-07 00:02:00,31.0,28.0,30.23,West,265,0.0,1.0,87,0.00,,,0.01,,2013-03-07 05:02:00,
2013-03-07 00:12:00,31.0,28.0,30.23,West,265,0.0,1.0,87,0.00,,,0.01,,2013-03-07 05:12:00,
2013-03-07 00:22:00,31.0,28.0,30.22,West,265,0.0,0.0,87,0.00,,,0.00,,2013-03-07 05:22:00,
2013-03-07 00:32:00,30.0,27.0,30.22,West,265,0.0,1.0,87,0.00,,,0.00,,2013-03-07 05:32:00,
2013-03-07 00:42:00,30.0,27.0,30.22,West,265,0.0,1.0,87,0.00,,,0.00,,2013-03-07 05:42:00,
2013-03-07 00:52:00,31.0,28.0,30.22,West,265,0.0,0.0,87,0.00,,,0.00,,2013-03-07 05:52:00,
2013-03-07 01:01:00,31.0,28.0,30.22,West,265,0.0,2.0,87,0.00,,,0.00,,2013-03-07 06:01:00,
2013-03-07 01:11:00,31.0,28.0,30.22,West,265,0.0,2.0,87,0.00,,,0.00,,2013-03-07 06:11:00,
2013-03-07 01:21:00,31.0,28.0,30.21,West,265,0.0,1.0,87,0.00,,,0.00,,2013-03-07 06:21:00,
2013-03-07 01:32:00,30.0,27.0,30.21,West,265,0.0,1.0,87,0.00,,,0.00,,2013-03-07 06:32:00,
2013-03-07 01:42:00,30.0,27.0,30.22,NE,43,0.0,4.0,87,0.00,,,0.00,,2013-03-07 06:42:00,
2013-03-07 01:52:00,30.0,27.0,30.22,NE,43,0.0,4.0,87,0.00,,,0.00,,2013-03-07 06:52:00,
2013-03-07 02:01:00,30.0,27.0,30.22,NE,43,0.0,2.0,87,0.00,,,0.00,,2013-03-07 07:01:00,
2013-03-07 02:11:00,30.0,27.0,30.22,NE,43,0.0,2.0,87,0.00,,,0.00,,2013-03-07 07:11:00,
2013-03-07 02:21:00,30.0,27.0,30.22,NE,43,0.0,1.0,87,0.00,,,0.00,,2013-03-07 07:21:00,
2013-03-07 02:32:00,30.0,26.0,30.22,NE,43,0.0,0.0,86,0.00,,,0.00,,2013-03-07 07:32:00,
2013-03-07 02:42:00,30.0,26.0,30.22,NE,43,0.0,0.0,86,0.00,,,0.00,,2013-03-07 07:42:00,
2013-03-07 02:53:00,30.0,26.0,30.22,NE,43,0.0,0.0,86,0.00,,,0.00,,2013-03-07 07:53:00,
2013-03-07 03:03:00,30.0,26.0,30.22,NE,43,0.0,0.0,86,0.00,,,0.00,,2013-03-07 08:03:00,
2013-03-07 03:12:00,30.0,26.0,30.22,NE,43,0.0,0.0,86,0.00,,,0.00,,2013-03-07 08:12:00,
2013-03-07 03:23:00,31.0,27.0,30.23,NE,43,0.0,0.0,86,0.00,,,0.00,,2013-03-07 08:23:00,
2013-03-07 03:33:00,30.0,26.0,30.24,NW,309,0.0,0.0,86,0.00,,,0.00,,2013-03-07 08:33:00,
2013-03-07 03:44:00,30.0,26.0,30.24,NW,309,0.0,0.0,86,0.00,,,0.00,,2013-03-07 08:44:00,
2013-03-07 03:53:00,30.0,26.0,30.24,NW,309,0.0,3.0,86,0.00,,,0.00,,2013-03-07 08:53:00,
2013-03-07 04:03:00,31.0,27.0,30.24,NW,309,0.0,0.0,86,0.00,,,0.00,,2013-03-07 09:03:00,
2013-03-07 04:13:00,31.0,27.0,30.24,NW,309,0.0,0.0,86,0.00,,,0.00,,2013-03-07 09:13:00,
2013-03-07 04:23:00,30.0,26.0,30.24,NW,309,0.0,2.0,86,0.00,,,0.00,,2013-03-07 09:23:00,
2013-03-07 04:33:00,30.0,26.0,30.25,WSW,256,0.0,2.0,86,0.00,,,0.00,,2013-03-07 09:33:00,
2013-03-07 04:43:00,30.0,26.0,30.25,WSW,256,0.0,2.0,86,0.00,,,0.00,,2013-03-07 09:43:00,
2013-03-07 04:52:00,30.0,26.0,30.26,WSW,256,0.0,1.0,86,0.00,,,0.00,,2013-03-07 09:52:00,
2013-03-07 05:03:00,30.0,27.0,30.26,WSW,256,0.0,2.0,87,0.00,,,0.00,,2013-03-07 10:03:00,
2013-03-07 05:13:00,30.0,27.0,30.26,WSW,256,0.0,2.0,87,0.00,,,0.00,,2013-03-07 10:13:00,
2013-03-07 05:23:00,30.0,26.0,30.26,WSW,256,0.0,2.0,86,0.00,,,0.00,,2013-03-07 10:23:00,
2013-03-07 05:33:00,30.0,27.0,30.26,WSW,256,0.0,0.0,87,0.00,,,0.00,,2013-03-07 10:33:00,
2013-03-07 05:42:00,30.0,27.0,30.26,WSW,256,0.0,0.0,87,0.00,,,0.00,,2013-03-07 10:42:00,
2013-03-07 05:52:00,30.0,26.0,30.27,WSW,256,0.0,1.0,86,0.00,,,0.00,,2013-03-07 10:52:00,
2013-03-07 06:03:00,30.0,26.0,30.27,WSW,256,0.0,0.0,86,0.00,,,0.00,,2013-03-07 11:03:00,
2013-03-07 06:12:00,30.0,26.0,30.27,WSW,256,0.0,0.0,86,0.00,,,0.00,,2013-03-07 11:12:00,
2013-03-07 06:23:00,30.0,26.0,30.27,WSW,256,0.0,0.0,86,0.00,,,0.00,,2013-03-07 11:23:00,
2013-03-07 06:33:00,30.0,26.0,30.27,WSW,256,0.0,0.0,86,0.00,,,0.00,,2013-03-07 11:33:00,
2013-03-07 06:43:00,30.0,26.0,30.27,WSW,256,0.0,0.0,86,0.00,,,0.00,,2013-03-07 11:43:00,
2013-03-07 06:54:00,30.0,26.0,30.28,WSW,256,0.0,0.0,86,0.00,,,0.00,,2013-03-07 11:54:00,
2013-03-07 07:03:00,30.0,26.0,30.28,WSW,256,0.0,0.0,86,0.00,,,0.00,,2013-03-07 12:03:00,
2013-03-07 07:12:00,30.0,26.0,30.28,WSW,256,0.0,0.0,86,0.00,,,0.00,,2013-03-07 12:12:00,
2013-03-07 07:23:00,30.0,26.0,30.28,WSW,256,0.0,0.0,86,0.00,,,0.00,,2013-03-07 12:23:00,
2013-03-07 07:33:00,30.0,26.0,30.29,WSW,256,0.0,0.0,86,0.00,,,0.00,,2013-03-07 12:33:00,
2013-03-07 07:43:00,30.0,26.0,30.29,WSW,256,0.0,0.0,86,0.00,,,0.00,,2013-03-07 12:43:00,
2013-03-07 07:53:00,30.0,26.0,30.29,WSW,256,0.0,0.0,86,0.00,,,0.00,,2013-03-07 12:53:00,
2013-03-07 08:03:00,31.0,27.0,30.29,WSW,256,0.0,0.0,86,0.00,,,0.00,,2013-03-07 13:03:00,
2013-03-07 08:12:00,31.0,27.0,30.29,WSW,256,0.0,0.0,86,0.00,,,0.00,,2013-03-07 13:12:00,
2013-03-07 08:23:00,31.0,27.0,30.30,WSW,256,0.0,0.0,86,0.00,,,0.00,,2013-03-07 13:23:00,
2013-03-07 08:32:00,32.0,28.0,30.30,WSW,256,0.0,0.0,86,0.00,,,0.00,,2013-03-07 13:32:00,
2013-03-07 08:42:00,32.0,28.0,30.30,WSW,256,0.0,0.0,86,0.00,,,0.00,,2013-03-07 13:42:00,
2013-03-07 08:52:00,32.0,28.0,30.30,WSW,256,0.0,0.0,85,0.00,,,0.00,,2013-03-07 13:52:00,
2013-03-07 09:02:00,32.0,28.0,30.30,WSW,256,0.0,2.0,84,0.00,,,0.00,,2013-03-07 14:02:00,
2013-03-07 09:12:00,32.0,28.0,30.30,WSW,256,0.0,2.0,84,0.00,,,0.00,,2013-03-07 14:12:00,
2013-03-07 09:23:00,32.0,27.0,30.31,WSW,256,0.0,1.0,83,0.00,,,0.00,,2013-03-07 14:23:00,
2013-03-07 09:33:00,32.0,27.0,30.32,WSW,256,0.0,1.0,82,0.00,,,0.00,,2013-03-07 14:33:00,
2013-03-07 09:42:00,32.0,27.0,30.32,WSW,256,0.0,1.0,82,0.00,,,0.00,,2013-03-07 14:42:00,
2013-03-07 09:54:00,33.0,28.0,30.31,NW,317,1.0,4.0,82,0.00,,,0.00,,2013-03-07 14:54:00,
2013-03-07 10:03:00,33.0,28.0,30.31,NW,325,0.0,2.0,80,0.00,,,0.00,,2013-03-07 15:03:00,
2013-03-07 10:12:00,33.0,28.0,30.31,NW,325,0.0,2.0,80,0.00,,,0.00,,2013-03-07 15:12:00,
2013-03-07 10:23:00,33.0,27.0,30.31,East,88,0.0,3.0,79,0.00,,,0.00,,2013-03-07 15:23:00,
2013-03-07 10:32:00,33.0,27.0,30.32,East,88,1.0,2.0,78,0.00,,,0.00,,2013-03-07 15:32:00,
2013-03-07 10:42:00,33.0,27.0,30.32,East,88,1.0,2.0,78,0.00,,,0.00,,2013-03-07 15:42:00,
2013-03-07 10:53:00,33.0,27.0,30.32,East,88,1.0,3.0,77,0.00,,,0.00,,2013-03-07 15:53:00,
2013-03-07 11:02:00,33.0,27.0,30.31,ENE,63,0.0,2.0,77,0.01,,,0.01,,2013-03-07 16:02:00,
2013-03-07 11:13:00,33.0,27.0,30.31,ENE,63,0.0,2.0,77,0.01,,,0.01,,2013-03-07 16:13:00,
2013-03-07 11:23:00,33.0,27.0,30.31,NNW,334,0.0,3.0,77,0.02,,,0.02,,2013-03-07 16:23:00,
2013-03-07 11:33:00,34.0,27.0,30.31,North,5,2.0,3.0,76,0.02,,,0.02,,2013-03-07 16:33:00,
2013-03-07 11:43:00,34.0,27.0,30.31,North,5,2.0,3.0,76,0.02,,,0.02,,2013-03-07 16:43:00,
2013-03-07 11:53:00,34.0,27.0,30.32,NNW,342,1.0,3.0,75,0.02,,,0.02,,2013-03-07 16:53:00,
2013-03-07 12:02:00,34.0,27.0,30.32,NNW,344,0.0,2.0,76,0.02,,,0.03,,2013-03-07 17:02:00,
2013-03-07 12:12:00,34.0,27.0,30.32,NNW,344,0.0,2.0,76,0.02,,,0.03,,2013-03-07 17:12:00,
2013-03-07 12:22:00,35.0,28.0,30.32,NNW,331,0.0,0.0,74,0.01,,,0.03,,2013-03-07 17:22:00,
2013-03-07 12:33:00,35.0,27.0,30.31,West,273,0.0,4.0,73,0.02,,,0.04,,2013-03-07 17:33:00,
2013-03-07 12:43:00,35.0,27.0,30.31,West,273,0.0,4.0,73,0.02,,,0.04,,2013-03-07 17:43:00,
2013-03-07 12:54:00,36.0,28.0,30.31,West,267,1.0,3.0,72,0.02,,,0.04,,2013-03-07 17:54:00,
2013-03-07 13:03:00,36.0,27.0,30.31,West,267,1.0,3.0,70,0.01,,,0.04,,2013-03-07 18:03:00,
2013-03-07 13:12:00,36.0,27.0,30.31,West,267,1.0,3.0,70,0.01,,,0.04,,2013-03-07 18:12:00,
2013-03-07 13:22:00,36.0,26.0,30.30,West,267,0.0,3.0,68,0.02,,,0.05,,2013-03-07 18:22:00,
2013-03-07 13:32:00,36.0,26.0,30.29,ENE,57,2.0,4.0,68,0.01,,,0.05,,2013-03-07 18:32:00,
2013-03-07 13:42:00,36.0,26.0,30.29,ENE,57,2.0,4.0,68,0.01,,,0.05,,2013-03-07 18:42:00,
2013-03-07 13:53:00,36.0,27.0,30.29,NNE,17,3.0,5.0,69,0.02,,,0.06,,2013-03-07 18:53:00,
2013-03-07 14:03:00,36.0,27.0,30.28,NW,315,1.0,4.0,70,0.02,,,0.06,,2013-03-07 19:03:00,
2013-03-07 14:12:00,36.0,27.0,30.29,ENE,64,3.0,5.0,69,0.01,,,0.06,,2013-03-07 19:12:00,
2013-03-07 14:23:00,36.0,27.0,30.29,ENE,64,3.0,5.0,69,0.01,,,0.06,,2013-03-07 19:23:00,
2013-03-07 14:35:00,36.0,27.0,30.28,NNW,340,2.0,4.0,69,0.01,,,0.06,,2013-03-07 19:35:00,
2013-03-07 14:43:00,36.0,27.0,30.28,NNW,340,2.0,4.0,69,0.01,,,0.06,,2013-03-07 19:43:00,
2013-03-07 14:53:00,36.0,26.0,30.28,ENE,59,2.0,6.0,68,0.01,,,0.07,,2013-03-07 19:53:00,
2013-03-07 15:02:00,37.0,28.0,30.27,North,360,1.0,7.0,69,0.01,,,0.07,,2013-03-07 20:02:00,
2013-03-07 15:13:00,37.0,28.0,30.27,North,360,1.0,7.0,69,0.01,,,0.07,,2013-03-07 20:13:00,
2013-03-07 15:22:00,37.0,28.0,30.28,North,5,0.0,3.0,69,0.01,,,0.07,,2013-03-07 20:22:00,
2013-03-07 15:33:00,38.0,29.0,30.28,NW,308,1.0,4.0,69,0.01,,,0.07,,2013-03-07 20:33:00,
2013-03-07 15:43:00,38.0,29.0,30.28,NW,308,1.0,4.0,69,0.01,,,0.07,,2013-03-07 20:43:00,
2013-03-07 15:53:00,38.0,28.0,30.28,North,5,1.0,5.0,68,0.00,,,0.07,,2013-03-07 20:53:00,
2013-03-07 16:03:00,37.0,27.0,30.29,NNW,341,0.0,6.0,68,0.00,,,0.07,,2013-03-07 21:03:00,
2013-03-07 16:12:00,37.0,27.0,30.29,NNW,341,0.0,6.0,68,0.00,,,0.07,,2013-03-07 21:12:00,
2013-03-07 16:22:00,37.0,28.0,30.29,NNW,327,0.0,5.0,69,-99.99,,,-99.99,,2013-03-07 21:22:00,
2013-03-07 16:33:00,37.0,28.0,30.29,WNW,303,1.0,4.0,69,0.00,,,0.07,,2013-03-07 21:33:00,
2013-03-07 16:43:00,37.0,28.0,30.29,WNW,303,1.0,4.0,69,0.00,,,0.07,,2013-03-07 21:43:00,
2013-03-07 16:53:00,37.0,27.0,30.30,West,262,1.0,4.0,68,0.00,,,0.07,,2013-03-07 21:53:00,
2013-03-07 17:02:00,37.0,27.0,30.30,North,355,1.0,4.0,67,-99.99,,,-99.99,,2013-03-07 22:02:00,
2013-03-07 17:12:00,37.0,27.0,30.30,North,355,1.0,4.0,67,-99.99,,,-99.99,,2013-03-07 22:12:00,
2013-03-07 17:22:00,37.0,27.0,30.30,NNW,342,0.0,2.0,67,0.00,,,0.07,,2013-03-07 22:22:00,
2013-03-07 17:32:00,36.0,26.0,30.30,NNW,342,0.0,3.0,67,0.00,,,0.07,,2013-03-07 22:32:00,
2013-03-07 17:42:00,36.0,26.0,30.30,NNW,342,0.0,3.0,67,0.00,,,0.07,,2013-03-07 22:42:00,
2013-03-07 17:54:00,36.0,26.0,30.30,North,5,0.0,4.0,68,0.00,,,0.07,,2013-03-07 22:54:00,
2013-03-07 18:03:00,36.0,26.0,30.30,NNW,347,0.0,3.0,68,0.00,,,0.07,,2013-03-07 23:03:00,
2013-03-07 18:13:00,36.0,26.0,30.30,NNW,347,0.0,3.0,68,0.00,,,0.07,,2013-03-07 23:13:00,
2013-03-07 18:22:00,36.0,26.0,30.30,NNW,347,1.0,3.0,68,0.00,,,0.07,,2013-03-07 23:22:00,
2013-03-07 18:33:00,35.0,26.0,30.30,NE,55,1.0,4.0,69,0.00,,,0.07,,2013-03-07 23:33:00,
2013-03-07 18:43:00,35.0,26.0,30.30,NE,55,1.0,4.0,69,0.00,,,0.07,,2013-03-07 23:43:00,
2013-03-07 18:53:00,35.0,26.0,30.30,NNE,19,1.0,4.0,69,0.00,,,0.07,,2013-03-07 23:53:00,
2013-03-07 19:04:00,35.0,27.0,30.31,NNE,19,0.0,0.0,71,0.00,,,0.07,,2013-03-08 00:04:00,
2013-03-07 19:13:00,35.0,27.0,30.31,NNE,19,0.0,0.0,71,0.00,,,0.07,,2013-03-08 00:13:00,
2013-03-07 19:23:00,35.0,27.0,30.31,NNE,19,0.0,0.0,71,0.00,,,0.07,,2013-03-08 00:23:00,
2013-03-07 19:34:00,35.0,27.0,30.32,NNE,19,0.0,0.0,71,0.00,,,0.07,,2013-03-08 00:34:00,
2013-03-07 19:43:00,35.0,27.0,30.32,NNE,19,0.0,0.0,71,0.00,,,0.07,,2013-03-08 00:43:00,
2013-03-07 19:54:00,35.0,27.0,30.32,NNE,19,1.0,3.0,71,0.00,,,0.07,,2013-03-08 00:54:00,
2013-03-07 20:02:00,35.0,27.0,30.33,NNE,19,0.0,1.0,72,0.00,,,0.07,,2013-03-08 01:02:00,
2013-03-07 20:11:00,35.0,27.0,30.33,NNE,19,0.0,1.0,72,0.00,,,0.07,,2013-03-08 01:11:00,
2013-03-07 20:22:00,35.0,28.0,30.33,NNE,19,0.0,2.0,74,0.00,,,0.07,,2013-03-08 01:22:00,
2013-03-07 20:33:00,34.0,26.0,30.33,ENE,69,2.0,4.0,73,0.00,,,0.07,,2013-03-08 01:33:00,
2013-03-07 20:42:00,34.0,26.0,30.33,ENE,69,2.0,4.0,73,0.00,,,0.07,,2013-03-08 01:42:00,
2013-03-07 20:52:00,34.0,26.0,30.33,NE,44,1.0,4.0,72,0.00,,,0.07,,2013-03-08 01:52:00,
2013-03-07 21:01:00,34.0,26.0,30.33,East,82,4.0,7.0,72,0.00,,,0.07,,2013-03-08 02:01:00,
2013-03-07 21:12:00,34.0,26.0,30.33,East,90,2.0,5.0,72,0.00,,,0.07,,2013-03-08 02:12:00,
2013-03-07 21:22:00,34.0,26.0,30.33,East,90,2.0,5.0,72,0.00,,,0.07,,2013-03-08 02:22:00,
2013-03-07 21:32:00,34.0,26.0,30.33,NE,53,0.0,1.0,72,0.00,,,0.07,,2013-03-08 02:32:00,
2013-03-07 21:42:00,34.0,26.0,30.33,NE,53,0.0,1.0,72,0.00,,,0.07,,2013-03-08 02:42:00,
2013-03-07 21:52:00,34.0,26.0,30.33,NE,53,0.0,0.0,73,0.00,,,0.07,,2013-03-08 02:52:00,
2013-03-07 22:02:00,34.0,26.0,30.33,NE,53,0.0,0.0,73,0.00,,,0.07,,2013-03-08 03:02:00,
2013-03-07 22:12:00,34.0,26.0,30.33,NE,53,0.0,0.0,73,0.00,,,0.07,,2013-03-08 03:12:00,
2013-03-07 22:22:00,34.0,26.0,30.32,NE,53,0.0,0.0,73,0.00,,,0.07,,2013-03-08 03:22:00,
2013-03-07 22:32:00,34.0,26.0,30.32,NE,53,1.0,3.0,73,0.00,,,0.07,,2013-03-08 03:32:00,
2013-03-07 22:43:00,34.0,26.0,30.32,NE,53,1.0,3.0,73,0.00,,,0.07,,2013-03-08 03:43:00,
2013-03-07 22:53:00,34.0,26.0,30.33,ENE,68,0.0,4.0,72,0.00,,,0.07,,2013-03-08 03:53:00,
2013-03-07 23:02:00,34.0,26.0,30.33,ENE,57,0.0,3.0,72,0.00,,,0.07,,2013-03-08 04:02:00,
2013-03-07 23:11:00,34.0,26.0,30.32,NE,54,0.0,3.0,73,0.00,,,0.07,,2013-03-08 04:11:00,
2013-03-07 23:22:00,34.0,26.0,30.32,NE,54,0.0,3.0,73,0.00,,,0.07,,2013-03-08 04:22:00,
2013-03-07 23:32:00,33.0,25.0,30.33,ENE,68,1.0,3.0,72,0.00,,,0.07,,2013-03-08 04:32:00,
2013-03-07 23:42:00,33.0,25.0,30.33,ENE,68,1.0,3.0,72,0.00,,,0.07,,2013-03-08 04:42:00,
2013-03-07 23:52:00,33.0,25.0,30.33,ENE,63,1.0,2.0,72,0.00,,,0.07,,2013-03-08 04:52:00,